Other Public Products
Issued by NWS Grand Forks, ND

Home | Current Version | Previous Version | Text Only | Print | Product List | Glossary Off
Versions: 1 2 3 4 5 6 7 8 9 10 11 12 13 14 15 16 17 18 19 20 21 22 23 24 25 26 27 28 29 30 31 32 33 34 35 36 37 38 39 40 41 42 43 44 45 46 47 48 49 50

000
FPUS83 KFGF 270131
OPUFGF
PRAIRIE TO PINES WEATHER ROUNDUP
NATIONAL WEATHER SERVICE EASTERN NORTH DAKOTA/GRAND FORKS ND
700 PM CST THU FEB 26 2015

 **SATELLITE DATA USED TO AUGMENT SKY COVER AT AUTOMATED STATIONS**
 *****  WEATHER ACROSS EASTERN NORTH DAKOTA  *****

CITY           SKY/WX    TMP DP  RH WIND       PRES   REMARKS
GRAND FORKS    CLEAR      0  -9  65 NW6       30.52R WCI -12
GRAND FORKS AF CLEAR      1  -8  65 NW5       30.52R WCI  -8
GRAND CITY NWS   N/A      0 N/A N/A NW5         N/A  WCI -10
BUXTON           N/A     -1  -9  67 W6          N/A  WCI -12
DEVILS LAKE    CLEAR    N/A N/A N/A MISG        N/A
FARGO          CLEAR      3  -6  66 W8        30.52F WCI -10
WAHPETON ARPT  CLEAR      1  -6  71 W8        30.54R WCI -12
$$

 *****  WEATHER ACROSS CENTRAL AND WESTERN NORTH DAKOTA  *****

CITY           SKY/WX    TMP DP  RH WIND       PRES   REMARKS
JAMESTOWN      CLEAR     -3 -11  68 NW8       30.49F WCI -18
BISMARCK       CLEAR      4  -6  63 N9        30.53S WCI -10
MINOT          CLEAR      0 -10  63 W8        30.51S WCI -14
MINOT AFB      CLEAR     -6 -12  75 W10       30.51S WCI -23
GARRISON         N/A     -3  -9  75 W6        30.50S WCI -15
WILLISTON      CLEAR     -1  -9  68 NW3       30.50F
DICKINSON      CLEAR      5  -6  60 N5        30.42S WCI  -4
HETTINGER      CLEAR      5  -4  66 N5        30.43S WCI  -4
$$

 *****  OTHER OBSERVATIONS NORTHEAST NORTH DAKOTA  *****

CITY           SKY/WX    TMP DP  RH WIND       PRES   REMARKS
WALHALLA         N/A      1  -9  60 NW6       30.50S WCI -10
LANGDON        NOT AVBL
CAVALIER       FAIR       0  -8  71 W9        30.50F WCI -16
GRAFTON        NOT AVBL
CANDO          FAIR      -8 N/A N/A W7        30.48F WCI -22
FORT TOTTEN    NOT AVBL
ROLLA          FAIR       0 -11  60 NW9       30.43F WCI -16
RUGBY          FAIR      -6 -11  77 W8        30.49F WCI -21
 ***** THE ABOVE OBSERVATIONS ARE NON NWS ARE NOT QUALITY
        CONTROLLED AND MAY MIS-REPORT RAIN FOR SNOW...
$$

 *****  OTHER OBSERVATIONS SOUTHEAST NORTH DAKOTA *****

CITY           SKY/WX    TMP DP  RH WIND       PRES   REMARKS
COOPERSTOWN    NOT AVBL
VALLEY CITY    FAIR      -2  -9  71 NW10      30.49F WCI -19
OAKES            N/A      0  -8  71 NW10      30.52F WCI -17
GWINNER        CLEAR      3  -8  60 NW12      30.53F WCI -13
BUFFALO        NOT AVBL
WYNDMERE         N/A      0  -8  71 W7          N/A  WCI -13
 ***** THE ABOVE OBSERVATIONS ARE NON NWS ARE NOT QUALITY
       CONTROLLED AND MAY MIS-REPORT RAIN FOR SNOW...
$$

  *****  WEATHER ACROSS NORTHERN MINNESOTA  *****

CITY           SKY/WX    TMP DP  RH WIND       PRES   REMARKS
FLAG ISLAND    CLEAR      1  -9  60 W9        30.40R WCI -14
WARROAD        CLEAR      0  -9  65 W10       30.43R WCI -17
ROSEAU         CLEAR      1  -8  66 W9        30.45R WCI -14
HALLOCK        CLEAR      0  -8  71 W6        30.49F WCI -12
THF RVR FALLS  CLEAR      0  -4  85 W5        30.47S WCI -10
HALSTAD          N/A      2  -8  65 W5          N/A  WCI  -8
FOSSTON        CLEAR     -8 -13  77 CALM      30.47R
BAUDETTE       CLEAR      1 -11  57 W7        30.38S WCI -12
WASKISH        CLEAR     -4  -9  77 SW10      30.42R WCI -21
CROOKSTON      CLEAR      0  -6  78 NW6       30.52S WCI -12
$$
  *****  WEATHER ACROSS CENTRAL AND WEST MINNESOTA  *****

CITY           SKY/WX    TMP DP  RH WIND       PRES   REMARKS
BEMIDJI        CLEAR     -5 -12  70 W7        30.42S WCI -19
PARK RAPIDS    CLEAR     -2 -12  62 W7        30.42R WCI -15
WADENA         CLEAR     -4  -9  77 NW6       30.45  WCI -16
DETROIT LAKES  CLEAR      1  -4  78 W6        30.46F WCI -10
MOORHEAD       CLEAR      1  -4  78 W3        30.53S
FERGUS FALLS   CLEAR      0  -9  65 N8        30.54S WCI -15
ELBOW LAKE     FAIR      -1  -8  72 NW7       30.49R WCI -14
MORRIS MN      CLEAR     -2  -8  78 NW8       30.50R WCI -17
STAPLES        CLEAR     -2 -11  65 W7        30.44S WCI -16
WHEATON        CLEAR     -2  -9  71 W8        30.56R WCI -17
$$
  *****  WEATHER ELSEWHERE ACROSS MINNESOTA  *****

CITY           SKY/WX    TMP DP  RH WIND       PRES   REMARKS
DULUTH         CLEAR      4 -12  48 W9        30.33R WCI -10
INTRNTL FALLS  CLEAR     -6 -16  61 W3        30.38R
ELY            CLEAR     -2 -15  55 W3        30.33R
CLOQUET        CLEAR      1 -13  51 W7        30.37R WCI -11
BRAINERD       CLEAR      3 -12  49 W6        30.42R WCI  -8
HIBBING        CLEAR      1 -14  49 W5        30.36R WCI  -9
ALEXANDRIA     CLEAR     -2 -10  69 NW7       30.46R WCI -15
SAINT CLOUD    CLEAR      2  -8  63 NW8       30.45R WCI -12
MINNEAPOLIS    CLEAR      5  -8  55 NW9       30.46R WCI  -9
$$

  *****  WEATHER ACROSS SOUTH DAKOTA  *****

CITY           SKY/WX    TMP DP  RH WIND       PRES   REMARKS
SIOUX FALLS    CLEAR     -1  -8  72 NW9       30.51R WCI -16
BROOKINGS      NOT AVBL
WATERTOWN      CLEAR     -3  -9  75 NW9       30.47R WCI -19
HURON          CLEAR     -3 -11  68 NW6       30.56R WCI -15
SISSETON         N/A     -3  -9  75 NW8       30.52S WCI -18
ABERDEEN       CLEAR      0  -9  65 NW7       30.55S WCI -13
MITCHELL       CLEAR      2  -5  72 NW9       30.57R WCI -13
PIERRE         CLEAR      5  -4  66 N6        30.52R WCI  -6
MOBRIDGE       CLEAR      1  -8  66 N7        30.49S WCI -12
RAPID CITY     CLEAR      0  -8  69 NW8       30.39S WCI -14
$$

  *****  SOME WEATHER IN NEARBY STATES *****

CITY           SKY/WX    TMP DP  RH WIND       PRES   REMARKS
GLASGOW MT     CLEAR      8  -5  55 SE8       30.42F WCI  -4
GREAT FALLS MT CLEAR     13   5  70 E12       30.14F WCI  -1
CHEYENNE WY    LGT SNOW   9   4  80 SE9       30.08S WCI  -4
SCOTTSBLUFF NE MOCLDY    13   3  64 E10       30.29R WCI   0
OMAHA NE       MOCLDY     8   2  76 N10       30.55R WCI  -6
DES MOINES IA  PTCLDY     6  -5  60 N13       30.51R WCI -10
DAVENPORT IA   CLEAR      3  -6  66 NW13      30.43R WCI -14
CHICAGO IL     PTCLDY     9  -5  53 NW12      30.36R WCI  -6
EAU CLAIRE WI  PTCLDY     4 -10  52 W3        30.41R
LA CROSSE WI   CLEAR      3  -8  60 NW7       30.44R WCI  -9
$$

  *****  SOME NATIONAL WEATHER *****

CITY           SKY/WX    TMP DP  RH WIND       PRES   REMARKS
LA GUARDIA NY  CLOUDY    25  13  60 N6        30.07R WCI  18
RALEIGH NC     MOCLDY    32  27  81 CALM      30.08R
ATLANTA GA     MOCLDY    37  28  70 N9        30.11R
NEW ORLEANS LA CLOUDY    48  33  56 N13       30.16R
OKLAHOMA CITY  PTCLDY    27  -2  28 N16       30.39R WCI  15
ALBUQUERQUE NM CLOUDY    34  20  56 E24       29.94S WCI  21
SALT LAKE CITY MOCLDY    37  31  78 W5        29.90S
LOS ANGELES CA PTCLDY    61  52  72 W8        29.85S
BOISE ID       CLOUDY    47  32  56 NW12      29.94F
SEATTLE WA     CLOUDY    51  45  79 CALM      29.99F
$$

*** WEATHER ACROSS MANITOBA...SASKATCHEWAN AND ONTARIO ***
                ***ONTARIO***

CITY           SKY/WX    TMP DP  RH WIND       PRES   REMARKS
GERALDTON      CLEAR     -4 -13  65 W7        30.16R WCI -18
THUNDER BAY    CLEAR      3  -9  55 W9        30.32R WCI -11
SIOUX LOOKOUT  CLEAR      0 -11  60 W3        30.27R
TORONTO        MOCLDY     5  -8  56 N15       30.22R WCI -13
BIG TROUT LK   PTCLDY     3  -8  60 W12G18    30.09S WCI -13
PICKLE LAKE    CLEAR      1  -9  60 W12       30.16S WCI -15
DRYDEN         CLEAR      0  -9  65 W8        30.30R WCI -15
KENORA         CLEAR      1 -11  55 NW9       30.35R WCI -14
$$
                *** MANITOBA***

CITY           SKY/WX    TMP DP  RH WIND       PRES   REMARKS
BRANDON        CLEAR      0  -9  65 W15       30.47F WCI -20
DAUPHIN        CLEAR      5  -6  61 W18G26    30.45F WCI -15
ISLAND LAKE    CLEAR      3 -11  51 W6        30.25S WCI  -8
PILOT MOUND      N/A      0  -9  65 W9          N/A  WCI -16
THE PAS        PTCLDY     9 -11  40 SW8       30.38F WCI  -4
THOMPSON       PTCLDY     5 -11  47 SW8       30.22F WCI  -8
WINNIPEG       CLEAR      1  -8  66 W7        30.48F WCI -11
LYNN LAKE      MOCLDY    12  -6  44 W12G17    30.15F WCI  -2
CHURCHILL      PTCLDY     5  -8  56 W13       29.94F WCI -12
GILLAM         MOCLDY     7  -9  47 W13       30.12F WCI  -9
$$
                ***SASKATCHEWAN***

CITY           SKY/WX    TMP DP  RH WIND       PRES   REMARKS
ESTEVAN        CLEAR     -9 -15  77 W6        30.50F WCI -23
KINDERSLEY     PTCLDY     1  -4  78 SE13      30.30F WCI -16
LLOYDMINSTER   MOCLDY     1  -9  60 SE12      30.27F WCI -15
PRINCE ALBERT  CLEAR      0 -11  60 SW8       30.42F WCI -15
REGINA         CLEAR     -6  -9  84 S6        30.48F WCI -18
YORKTON        CLEAR      0  -9  65 W6        30.45F WCI -12


USA.gov is the U.S. government's official web portal to all federal, state and local government web resources and services.